Ardmore, OK

2:29 AM CDT on August 26, 2016 (GMT -0500)
Ardmore Downtown

Weather History for K1F0 - May, 2013

Change the Weather History Date:

Tuesday, May 21, 2013

  Actual Average (KADM) Record (KADM)
Temperature  
Mean Temperature 62 °F -  
Max Temperature 69 °F 80 °F 96 °F (2005)
Min Temperature 55 °F 61 °F 53 °F (2001)
Degree Days  
Heating Degree Days 3    
Growing Degree Days 12 (Base 50)    
Moisture  
Dew Point 59 °F    
Average Humidity 88    
Maximum Humidity 94    
Minimum Humidity 77    
Precipitation  
Precipitation 0.00 in - - ()
Sea Level Pressure  
Sea Level Pressure 29.80 in    
Wind  
Wind Speed 6 mph (ENE)    
Max Wind Speed 24 mph    
Max Gust Speed 40 mph    
Visibility 9 miles    
Events Rain , Thunderstorm    
Averages and records for this station are not official NWS values.
T = Trace of Precipitation, MM = Missing Value Source: NWS Daily Summary

Daily Weather History Graph

Daily Weather History Graph

Search for Another Location

Airport or City:

Trip Planner

Search our weather history database for the weather conditions in past years. The results will help you decide how hot, cold, wet, or windy it might be!

Date:

Astronomy

May. 21, 2013 Rise Set
Actual Time 6:22 AM CDT 8:27 PM CDT
Civil Twilight 5:54 AM CDT 8:56 PM CDT
Nautical Twilight 5:20 AM CDT 9:30 PM CDT
Astronomical Twilight 4:43 AM CDT 10:07 PM CDT
Moon 4:51 PM CDT (5/21) 3:40 AM CDT (5/21)
Length of Visible Light 15h 01m
Length of Day
14h 05m
Waxing Gibbous, 84% of the Moon is Illuminated
May 21
Waxing Gibbous
May 24
Full
May 31
Last Quarter
Jun 8
New
Jun 16
First Quarter

Hourly Weather History & Observations

Time (CDT) Temp. Dew Point Humidity Pressure Visibility Wind Dir Wind Speed Gust Speed Precip Events Conditions
12:15 AM 66.2 °F 62.6 °F 88% 29.77 in 10.0 mi NE 6.9 mph - N/A   Clear
12:35 AM 66.2 °F 62.6 °F 88% 29.77 in 10.0 mi NE 8.1 mph - N/A   Scattered Clouds
12:55 AM 68.0 °F 62.6 °F 83% 29.78 in 10.0 mi NE 11.5 mph - N/A   Mostly Cloudy
1:15 AM 68.0 °F 62.6 °F 83% 29.77 in 10.0 mi ENE 6.9 mph - N/A   Mostly Cloudy
1:35 AM 68.0 °F 62.6 °F 83% 29.76 in 10.0 mi NE 4.6 mph - N/A   Scattered Clouds
1:55 AM 68.0 °F 62.6 °F 83% 29.75 in 10.0 mi East 4.6 mph - N/A   Scattered Clouds
2:15 AM 68.0 °F 62.6 °F 83% 29.76 in 10.0 mi ENE 5.8 mph - N/A   Mostly Cloudy
2:35 AM 68.0 °F 62.6 °F 83% 29.77 in 10.0 mi ENE 5.8 mph - N/A   Mostly Cloudy
2:55 AM 68.0 °F 62.6 °F 83% 29.77 in 10.0 mi East 5.8 mph - N/A   Overcast
3:15 AM 69.8 °F 62.6 °F 78% 29.78 in 10.0 mi East 4.6 mph - N/A   Overcast
3:35 AM 69.8 °F 62.6 °F 78% 29.78 in 10.0 mi East 5.8 mph - N/A   Overcast
3:55 AM 69.8 °F 64.4 °F 83% 29.77 in 10.0 mi ESE 5.8 mph - N/A   Overcast
4:15 AM 68.0 °F 64.4 °F 88% 29.77 in 10.0 mi ESE 5.8 mph - N/A   Overcast
4:35 AM 68.0 °F 64.4 °F 88% 29.76 in 10.0 mi SE 5.8 mph - N/A   Overcast
4:55 AM 68.0 °F 64.4 °F 88% 29.76 in 10.0 mi SSE 5.8 mph - N/A   Overcast
5:15 AM 68.0 °F 64.4 °F 88% 29.75 in 10.0 mi SSE 8.1 mph - N/A   Overcast
5:35 AM 68.0 °F 64.4 °F 88% 29.76 in 10.0 mi SSE 5.8 mph - N/A   Overcast
5:55 AM 68.0 °F 64.4 °F 88% 29.76 in 10.0 mi South 4.6 mph - N/A   Overcast
6:15 AM 68.0 °F 64.4 °F 88% 29.77 in 10.0 mi SSE 3.5 mph - N/A   Overcast
6:35 AM 68.0 °F 64.4 °F 88% 29.76 in 10.0 mi South 6.9 mph - N/A Thunderstorm Thunderstorm
7:15 AM 68.0 °F 64.4 °F 88% 29.76 in 10.0 mi South 4.6 mph - N/A Thunderstorm Overcast
7:35 AM 68.0 °F 64.4 °F 88% 29.75 in 10.0 mi ESE 3.5 mph - N/A Thunderstorm Overcast
7:55 AM 64.4 °F 60.8 °F 88% 29.77 in 10.0 mi NNE 12.7 mph - N/A Thunderstorm Overcast
8:15 AM 64.4 °F 60.8 °F 88% 29.79 in 10.0 mi NE 11.5 mph 16.1 mph N/A   Overcast
8:35 AM 64.4 °F 62.6 °F 94% 29.80 in 5.0 mi NE 5.8 mph - N/A Rain Light Rain
8:55 AM 64.4 °F 62.6 °F 94% 29.81 in 7.0 mi NNE 8.1 mph - N/A Rain , Thunderstorm Rain
9:15 AM 62.6 °F 60.8 °F 94% 29.85 in 1.8 mi NW 4.6 mph - N/A Rain , Thunderstorm Thunderstorms and Rain
9:35 AM 60.8 °F 59.0 °F 94% 29.85 in 4.0 mi North 3.5 mph - N/A Rain , Thunderstorm Light Thunderstorms and Rain
9:55 AM 60.8 °F 59.0 °F 94% 29.84 in 7.0 mi NNE 6.9 mph - N/A Rain , Thunderstorm Light Thunderstorms and Rain
10:15 AM 60.8 °F 59.0 °F 94% 29.84 in 7.0 mi Calm Calm - N/A Rain , Thunderstorm Thunderstorms and Rain
10:35 AM 60.8 °F 59.0 °F 94% 29.82 in 5.0 mi NE 13.8 mph 18.4 mph N/A Rain , Thunderstorm Thunderstorms and Rain
10:55 AM 59.0 °F 57.2 °F 94% 29.82 in 10.0 mi ENE 10.4 mph 16.1 mph N/A Thunderstorm Overcast
11:15 AM 59.0 °F 57.2 °F 94% 29.82 in 10.0 mi ENE 10.4 mph 17.3 mph N/A Rain , Thunderstorm Light Thunderstorms and Rain
11:35 AM 60.8 °F 59.0 °F 94% 29.80 in 5.0 mi East 8.1 mph - N/A Rain Light Rain
11:55 AM 60.8 °F 59.0 °F 94% 29.78 in 10.0 mi East 5.8 mph 10.4 mph N/A   Overcast
12:15 PM 62.6 °F 60.8 °F 94% 29.78 in 10.0 mi NE 3.5 mph - N/A   Light Drizzle
12:35 PM 62.6 °F 60.8 °F 94% 29.77 in 4.0 mi East 8.1 mph - N/A Rain , Thunderstorm Light Thunderstorms and Rain
12:55 PM 62.6 °F 60.8 °F 94% 29.86 in 5.0 mi NNW 17.3 mph 33.4 mph N/A Rain , Thunderstorm Rain
1:15 PM 55.4 °F 53.6 °F 94% 29.83 in 1.2 mi North 15.0 mph 26.5 mph N/A Rain , Thunderstorm Heavy Thunderstorms and Rain
1:35 PM 55.4 °F 53.6 °F 94% 29.82 in 2.0 mi NNE 24.2 mph 40.3 mph N/A Rain , Thunderstorm Thunderstorms and Rain
1:55 PM 55.4 °F 53.6 °F 94% 29.79 in 10.0 mi NE 20.7 mph 32.2 mph N/A Rain , Thunderstorm Light Thunderstorms and Rain
2:15 PM 55.4 °F 53.6 °F 94% 29.79 in 10.0 mi ENE 11.5 mph 27.6 mph N/A Rain , Thunderstorm Light Thunderstorms and Rain
2:35 PM 55.4 °F 53.6 °F 94% 29.77 in 10.0 mi NNE 15.0 mph 21.9 mph N/A Rain , Thunderstorm Light Thunderstorms and Rain
2:55 PM 55.4 °F 53.6 °F 94% 29.73 in 10.0 mi NE 15.0 mph 27.6 mph N/A Thunderstorm Unknown
3:15 PM 55.4 °F 53.6 °F 94% 29.82 in 10.0 mi West 3.5 mph - N/A   Mostly Cloudy
3:35 PM 57.2 °F 55.4 °F 94% 29.82 in 10.0 mi NW 3.5 mph - N/A   Overcast
3:55 PM 57.2 °F 55.4 °F 94% 29.80 in 10.0 mi Calm Calm - N/A   Overcast
4:15 PM 57.2 °F 55.4 °F 94% 29.77 in 10.0 mi North 3.5 mph - N/A   Mostly Cloudy
4:35 PM 57.2 °F 55.4 °F 94% 29.79 in 10.0 mi Calm Calm - N/A   Clear
4:55 PM 59.0 °F 55.4 °F 88% 29.80 in 10.0 mi NNE 4.6 mph - N/A   Clear
5:15 PM 60.8 °F 55.4 °F 82% 29.81 in 10.0 mi NNE 4.6 mph - N/A   Mostly Cloudy
5:35 PM 62.6 °F 55.4 °F 77% 29.80 in 10.0 mi NNE 5.8 mph - N/A   Overcast
5:55 PM 62.6 °F 55.4 °F 77% 29.80 in 10.0 mi ESE 6.9 mph - N/A   Overcast
6:15 PM 62.6 °F 55.4 °F 77% 29.81 in 10.0 mi NE 3.5 mph - N/A   Overcast
6:35 PM 62.6 °F 55.4 °F 77% 29.81 in 10.0 mi East 3.5 mph - N/A   Mostly Cloudy
6:55 PM 62.6 °F 55.4 °F 77% 29.82 in 10.0 mi Calm Calm - N/A   Scattered Clouds
7:15 PM 62.6 °F 55.4 °F 77% 29.82 in 10.0 mi Calm Calm - N/A   Clear
7:35 PM 62.6 °F 55.4 °F 77% 29.83 in 10.0 mi Calm Calm - N/A   Mostly Cloudy
7:55 PM 62.6 °F 55.4 °F 77% 29.85 in 10.0 mi Calm Calm - N/A   Overcast
8:15 PM 62.6 °F 55.4 °F 77% 29.86 in 10.0 mi Calm Calm - N/A   Overcast
8:35 PM 62.6 °F 57.2 °F 82% 29.88 in 10.0 mi Calm Calm - N/A   Overcast
8:55 PM 62.6 °F 57.2 °F 82% 29.87 in 10.0 mi Calm Calm - N/A   Overcast
9:15 PM 60.8 °F 57.2 °F 88% 29.87 in 10.0 mi Calm Calm - N/A   Scattered Clouds
9:35 PM 59.0 °F 57.2 °F 94% 29.86 in 10.0 mi Calm Calm - N/A   Clear
9:55 PM 59.0 °F 55.4 °F 88% 29.87 in 10.0 mi Calm Calm - N/A   Clear
10:15 PM 59.0 °F 55.4 °F 88% 29.87 in 10.0 mi Calm Calm - N/A   Clear
10:35 PM 57.2 °F 55.4 °F 94% 29.86 in 10.0 mi Calm Calm - N/A   Clear
10:55 PM 57.2 °F 55.4 °F 94% 29.86 in 10.0 mi SW 3.5 mph - N/A   Clear
11:15 PM 57.2 °F 55.4 °F 94% 29.86 in 10.0 mi Calm Calm - N/A   Clear
11:35 PM 55.4 °F 53.6 °F 94% 29.86 in 10.0 mi Calm Calm - N/A   Clear
11:55 PM 55.4 °F 53.6 °F 94% 29.86 in 10.0 mi Calm Calm - N/A   Clear